BLOCK DM-SL R/B, 54034

Orbit data source: Space-Track

BLOCK DM-SL R/B, 54034 is space debris in GEO originally from a launch on Wed, 12 Oct 2022 UTC launched from the Tyuratam Missile And Space Complex (TTMTR). Debris objects in space refer to the collection of defunct objects orbiting the Earth. Examples of debris include non-operational satellites, rocket bodies, and fragments generated from explosions, collisions, or faulty payload assembly.

Not visible in the next 10 days
BLOCK DM-SL R/B details
Identifier
54034, 2022-131B
Orbit
GEO
Last TLE update1 day ago
Origin
Flag of CISVVKO VKS (CIS)
ManufacturerRKKE
MissionSpacecraft
Bus & MotorBLOK DM2, 11D58M
Mass2,440 kg wet, 2,440 kg dry
Launch date (UTC)
2022-10-12 (2 years ago)
Launch vehicleUnknown
Launch site
Tyuratam Missile And Space Complex (TTMTR)
Object type
Payload
Rocket body
Debris
Shape & HBRCyl, 7.1 m
Radar Cross Section26.008 m², Medium (>0.1 m² and < 1m²)

Expand to show TLE details & history

TLE from 1 day ago
0 BLOCK DM-SL R/B
1 54034U 22131B   25024.70832510  .00000003  00000-0  00000-0 0  9997
2 54034   2.0420  85.1775 0078669  24.4779 335.6271  0.97747457  8159
Epoch: 2025-01-24T16:59Z
Definitive object data (Epoch: 2025-01-24T16:59:59.288Z)
Latitude-0°
Longitude65.65383°
Altitude36,200.886 km
Speed3.071 km/s
True Right ascension05h 39m 40s
True Declination0° 00' 00"
Sunlit
Object was in daylight at TLE epoch
Visualization TLE readout
Latitude1.26932°
Longitude103.49936°
Altitude36,178.367 km
Speed3.072 km/s
Apparent Right ascension08h 18m 46s
Apparent Declination-3° 47' 32"
Sunlit
Object is in daylight
Visualization observer readout
Local Sidereal Time21:26:45
Azimuth27.445° NE
Elevation-50.744°
Doppler factor1
Orbital elements
Apogee altitude36,847.894 km
Perigee altitude36,173.093 km
Semi-major axis42,888.63 km
Eccentricity0.0078669
Inclination2.042°
RAAN85.1775°
Arg. of periapsis24.4779°
True anomaly335.25172°
Mean anomaly335.6271°
Eccentric anomaly335.43975°
Mean motion0.24436 °/min
BSTARUnknown
Orbital period1473.24 mins
Loading historical data...
54034 neighbors
Authenticating...
Loading maneuver chart data...
Loading historical data...
Loading historical data...
Loading historical data...
Loading historical data...
Loading historical data...
Loading historical data...
Loading historical data...
Other satellites on launch #131 in the year 2022 (2022-10-12 UTC)

BLOCK DM-SL R/B Visibility forecast

Observer location: undefined°, undefined

BLOCK DM-SL R/B is not visible in the next 10 days
Span
Click to sort rows by Start time (UTC) header in descending order
Start Az.
Max El. time (UTC)
Max El. Az.
Max El.
End time (UTC)
End Az.
|